Wetbulb
60.27 60.67 60.51 61.37 61.81 59.19 57.56 57.92 56.95 52.76 54.49 55.96 57.60 60.95 61.80 61.52 59.95 60.08 60.48 54.36 51.64 50.69 50.86 52.09 53.93 55.19 55.95 57.30 58.33 59.13 59.58 59.65 59.54 59.25 59.15 59.41 59.61 59.99
59.53 58.70 57.78 59.77 58.87 58.89 59.62 58.87 58.72 58.43 55.08 57.46 56.87 57.76 61.26 61.42 59.41 60.62 60.56 55.41 50.17 48.92 48.54 49.06 50.51 52.61 53.62 54.47 55.47 56.44 57.31 57.98 58.10 58.39 58.45 58.48 59.16 59.45
58.71 59.02 57.15 57.17 57.01 57.33 57.46 58.07 59.12 59.59 57.52 58.43 57.05 57.91 58.70 60.45 60.78 60.29 60.33 59.63 58.70 48.36 47.43 47.81 47.99 48.56 49.99 51.08 51.96 53.01 54.17 55.30 56.07 56.78 57.12 57.88 58.75 59.05
58.22 56.74 56.30 57.29 55.48 55.83 57.37 57.50 56.91 57.92 58.59 57.18 58.39 55.79 57.52 59.86 60.42 59.40 60.24 60.66 60.36 51.62 47.60 47.60 47.25 47.25 46.91 47.65 48.38 49.28 50.35 51.59 52.44 53.63 54.86 56.15 57.10 58.02
44.58 45.43 45.21 52.33 56.25 56.61 57.52 57.50 57.32 57.22 57.60 57.52 57.92 57.04 57.43 56.78 58.99 58.71 58.76 59.23 59.54 55.02 48.74 48.56 48.18 46.67 45.97 45.98 46.71 47.43 47.99 48.36 48.56 49.10 49.77 51.03 53.32 54.86
39.77 39.90 38.63 38.53 42.18 42.97 50.39 58.10 57.18 56.39 56.96 57.72 57.89 56.52 55.93 55.73 57.44 57.42 55.97 57.42 57.14 57.96 53.90 50.86 47.61 46.69 46.16 45.42 45.24 46.09 46.62 47.36 47.56 47.25 46.74 46.38 47.47 50.33
35.82 36.92 38.54 37.65 37.02 37.33 39.50 37.77 40.45 54.53 58.06 58.21 57.11 56.32 55.53 54.69 55.77 54.91 54.55 55.05 55.23 55.73 55.79 55.71 52.79 51.13 50.18 45.22 47.25 45.55 45.06 45.04 45.57 46.42 46.58 46.11 45.95 47.85
31.84 33.01 34.44 35.57 36.14 34.78 34.99 34.23 33.37 36.94 35.35 39.87 56.06 54.61 49.10 44.66 43.09 46.08 47.89 50.64 50.82 45.09 48.93 52.44 52.97 53.64 52.95 47.79 40.18 40.75 41.52 43.25 44.14 44.77 45.46 45.51 45.35 45.17
28.76 29.76 30.83 32.25 34.02 34.55 33.22 32.32 32.61 32.70 32.61 33.11 30.67 30.49 31.79 31.33 34.95 39.56 40.68 41.63 43.41 40.17 40.85 42.03 43.72 43.99 40.12 38.12 38.39 38.78 39.22 39.93 40.90 41.44 42.33 42.70 42.74 42.56
28.26 28.02 28.24 28.98 30.96 31.68 30.76 29.43 28.80 29.90 30.83 31.35 30.17 29.79 30.11 30.97 31.60 32.34 33.36 34.05 35.03 35.25 36.29 35.11 34.75 35.13 34.93 34.79 36.22 36.95 37.45 38.22 38.99 39.77 40.46 40.84 41.06 41.24
26.34 28.04 27.45 27.79 30.50 30.87 28.58 27.63 27.29 27.38 30.69 31.62 31.57 31.36 31.18 31.68 30.60 31.02 29.89 32.09 33.12 32.41 28.85 30.69 32.60 32.79 32.24 32.03 32.44 34.79 34.82 35.29 35.75 36.18 36.98 38.11 39.49 39.89
24.13 25.04 27.84 27.09 28.12 28.31 25.75 25.63 24.59 25.91 27.02 27.08 27.28 27.75 28.28 28.32 29.60 28.08 26.94 26.56 27.81 31.05 26.86 26.81 32.17 32.05 32.60 30.59 30.59 30.70 31.61 32.46 32.91 33.66 35.94 37.37 38.79 38.88
20.42 20.79 23.43 26.33 26.48 26.59 26.12 24.29 23.88 25.38 25.58 25.73 25.33 25.53 25.93 25.67 25.59 26.66 27.35 25.81 24.03 24.76 27.23 26.17 27.75 31.83 31.83 30.25 29.39 28.65 28.68 28.97 30.46 29.80 33.06 34.86 36.02 36.62
18.61 19.72 20.68 23.13 23.26 23.79 22.11 23.60 23.94 22.80 22.78 22.61 22.29 22.11 22.44 22.49 23.82 24.78 25.75 26.06 27.86 26.24 26.97 26.71 25.83 27.67 28.40 29.27 28.79 27.29 27.09 27.50 28.43 28.24 28.97 30.03 31.70 32.76
17.30 18.48 19.70 19.68 19.45 18.55 20.52 19.84 17.96 18.44 18.52 18.09 18.50 20.36 21.86 22.89 23.76 23.68 24.53 24.11 26.18 25.37 25.78 25.75 24.99 25.41 26.71 28.77 28.03 26.09 25.55 25.93 26.97 27.00 27.34 27.04 27.08 27.97
13.65 12.95 13.30 15.72 12.93 13.16 14.14 14.96 14.05 14.08 14.90 14.94 15.50 17.64 20.18 21.76 20.78 21.87 20.91 20.93 20.23 20.54 23.44 21.86 23.09 23.92 23.28 25.71 26.29 25.38 24.97 24.27 25.48 26.24 26.47 26.44 26.88 27.82
10.61 10.02 8.90 9.11 8.69 8.83 9.83 10.49 10.76 10.29 10.04 11.99 12.12 13.17 14.43 17.35 18.17 19.87 19.16 18.63 15.14 15.71 17.25 19.44 20.63 20.51 20.45 22.35 23.10 23.59 23.83 24.01 25.37 26.03 25.44 23.37 24.27 25.83
9.00 5.74 4.64 5.50 6.14 6.37 5.98 6.41 6.86 6.63 6.62 8.28 8.27 9.62 10.46 12.78 14.67 16.32 16.58 15.81 14.93 15.85 16.22 17.22 17.68 16.80 17.82 18.08 23.21 18.96 21.91 23.86 25.21 25.52 25.08 22.00 21.65 24.86
5.81 4.07 2.38 2.69 4.86 5.73 4.27 3.92 2.30 3.23 5.63 4.99 5.35 5.79 7.29 9.28 11.89 13.34 13.39 12.37 13.55 15.47 16.39 17.08 17.13 15.78 9.21 5.70 15.94 23.29 19.56 22.05 23.85 22.88 23.16 22.27 20.85 22.55
7.26 4.99 2.94 3.58 4.48 4.64 3.32 2.09 0.85 0.02 -0.09 0.49 1.67 2.47 3.35 5.53 8.27 10.07 11.32 8.45 9.94 13.52 14.97 16.19 16.05 16.89 11.59 8.47 8.15 13.58 24.98 20.93 21.37 20.72 20.47 22.04 23.20 25.16
7.12 6.49 2.52 3.49 4.43 4.86 -2.63 -4.59 -11.45 -5.02 -4.69 -6.70 -2.06 -0.62 0.22 2.85 5.91 8.28 8.91 7.75 7.66 11.20 10.59 12.78 16.87 21.25 19.44 18.71 10.34 12.78 16.25 25.34 24.27 21.80 21.33 19.11 18.44 19.62
0.97 5.36 5.19 1.85 -1.82 0.01 -6.37 -12.72 -6.10 -7.26 -3.21 -2.61 -3.75 -3.80 -2.59 0.65 3.45 5.85 6.70 6.01 8.13 9.57 10.77 13.50 16.40 19.83 19.32 17.07 13.07 12.48 14.99 17.21 22.54 23.89 23.79 22.62 19.09 15.53
-2.02 0.57 -1.02 -4.95 -5.85 -5.83 0.37 -7.46 -7.36 -10.08 -6.83 -5.12 -4.36 -2.77 -3.58 -0.56 3.16 4.57 5.88 5.66 6.48 7.38 9.66 11.22 12.57 16.40 17.00 16.59 14.88 14.25 15.30 16.40 17.93 17.97 17.88 22.14 22.65 24.55
MSLP
1003.92 1003.74 1003.65 1004.10 1004.52 1005.19 1006.14 1006.64 1007.28 1007.62 1008.28 1007.08 1007.36 1006.90 1007.02 1007.34 1007.57 1008.05 1008.22 1008.53 1009.70 1010.09 1010.50 1010.85 1011.25 1011.65 1012.02 1012.49 1012.99 1013.43 1013.80 1014.18 1014.57 1015.05 1015.50 1015.87 1016.32 1016.82
1003.21 1003.18 1003.01 1003.23 1003.79 1003.47 1005.20 1006.11 1005.85 1007.05 1006.84 1006.31 1006.31 1006.39 1006.33 1006.51 1006.76 1007.00 1007.36 1007.63 1008.37 1009.03 1009.60 1010.00 1010.47 1010.89 1011.31 1011.70 1012.12 1012.54 1012.94 1013.27 1013.64 1014.02 1014.49 1014.91 1015.24 1015.62
1002.75 1002.75 1002.91 1002.86 1003.47 1004.05 1004.76 1005.78 1006.21 1006.41 1006.13 1005.68 1005.77 1006.01 1005.95 1005.92 1006.40 1006.48 1006.72 1007.16 1007.72 1008.10 1008.81 1009.12 1009.63 1010.06 1010.35 1010.74 1011.16 1011.67 1012.06 1012.40 1012.69 1013.10 1013.36 1013.64 1013.96 1014.43
1002.32 1002.45 1002.50 1002.69 1003.12 1003.64 1004.20 1004.56 1004.71 1004.95 1005.82 1005.36 1005.55 1005.54 1005.59 1005.47 1005.61 1005.83 1006.24 1006.47 1006.96 1007.27 1007.55 1008.19 1008.45 1009.04 1009.41 1009.91 1010.29 1010.79 1011.27 1011.60 1011.80 1012.08 1012.42 1012.78 1012.83 1013.15
1003.27 1003.26 1003.49 1003.28 1003.40 1003.55 1003.67 1003.71 1004.00 1004.43 1004.94 1004.92 1004.88 1005.22 1005.08 1005.34 1005.35 1005.34 1005.64 1006.14 1006.31 1006.58 1007.11 1007.41 1008.01 1007.81 1008.35 1009.13 1009.45 1009.95 1010.36 1010.69 1011.01 1011.16 1011.51 1011.73 1011.73 1012.09
1004.70 1004.71 1004.75 1004.80 1004.40 1004.24 1004.00 1003.77 1003.61 1003.35 1003.60 1004.28 1004.22 1004.73 1004.76 1004.79 1004.99 1005.00 1005.35 1005.64 1005.82 1006.32 1006.76 1006.98 1007.04 1007.23 1007.59 1008.38 1008.81 1009.00 1009.36 1009.71 1010.11 1010.38 1010.64 1010.85 1010.97 1011.03
1006.29 1006.27 1006.14 1006.42 1005.88 1005.41 1005.32 1005.37 1004.65 1003.49 1003.47 1003.71 1003.68 1003.91 1004.00 1004.27 1004.47 1004.81 1005.08 1005.30 1005.66 1006.34 1006.52 1006.42 1006.72 1007.11 1007.35 1007.92 1008.13 1008.41 1008.72 1008.97 1009.30 1009.46 1009.68 1009.79 1009.85 1010.04
1008.09 1008.04 1007.80 1007.83 1007.64 1007.00 1006.84 1006.63 1006.73 1005.11 1004.75 1005.16 1004.12 1004.26 1005.16 1005.35 1005.10 1005.11 1005.32 1005.65 1006.46 1006.91 1006.56 1006.22 1006.15 1006.47 1006.98 1007.34 1008.00 1007.98 1008.30 1008.47 1008.62 1008.75 1008.74 1008.83 1008.85 1008.87
1010.00 1009.82 1009.52 1009.56 1009.35 1008.55 1008.25 1007.88 1007.98 1007.00 1007.34 1006.70 1006.53 1007.93 1008.08 1008.63 1007.52 1006.58 1006.22 1006.30 1006.80 1007.43 1007.86 1007.33 1006.68 1006.82 1007.38 1008.02 1008.11 1008.08 1008.21 1008.20 1008.25 1008.22 1008.18 1008.06 1008.02 1008.10
1011.88 1011.92 1011.47 1011.22 1011.04 1009.79 1009.42 1008.90 1009.23 1008.81 1007.61 1008.53 1008.23 1008.24 1009.83 1009.61 1009.43 1008.28 1008.57 1007.81 1007.53 1008.48 1008.50 1008.28 1007.85 1007.70 1007.64 1008.14 1008.29 1008.28 1008.38 1008.08 1008.06 1008.02 1007.76 1007.50 1007.27 1007.29
1013.81 1013.93 1012.84 1013.13 1012.79 1011.07 1010.70 1010.09 1010.22 1010.37 1010.51 1009.95 1009.01 1009.89 1009.07 1009.24 1009.27 1007.62 1008.46 1008.49 1008.34 1008.87 1010.07 1009.18 1008.74 1008.24 1007.96 1008.34 1008.56 1008.47 1008.55 1008.29 1008.07 1007.99 1007.64 1007.23 1006.76 1006.50
1015.72 1015.30 1014.86 1014.90 1013.91 1013.17 1012.49 1012.21 1011.71 1011.42 1011.39 1010.82 1010.22 1010.64 1010.82 1010.62 1010.51 1008.76 1011.57 1010.42 1009.32 1009.92 1010.93 1010.46 1009.25 1008.85 1008.54 1008.54 1008.78 1008.76 1008.57 1008.30 1007.86 1007.91 1007.34 1006.61 1006.03 1005.80
1017.74 1017.33 1017.13 1016.73 1015.61 1014.97 1014.38 1014.12 1014.25 1013.93 1012.50 1012.59 1012.62 1012.86 1012.65 1012.12 1011.63 1011.27 1011.21 1010.92 1010.80 1011.39 1011.67 1011.21 1010.49 1009.65 1009.44 1009.13 1008.71 1008.86 1008.97 1008.62 1008.24 1007.94 1007.58 1006.90 1006.46 1005.60
1019.74 1019.67 1019.20 1018.45 1017.77 1017.06 1016.26 1016.07 1015.38 1014.91 1014.03 1013.92 1014.14 1014.10 1013.63 1012.77 1012.55 1012.37 1011.79 1011.72 1011.41 1012.23 1012.36 1011.99 1011.27 1010.83 1010.44 1009.70 1009.19 1009.03 1009.10 1009.16 1008.88 1008.42 1008.10 1007.50 1007.04 1006.80
1021.65 1021.41 1020.59 1019.96 1019.31 1018.28 1017.44 1017.20 1016.81 1016.49 1016.44 1016.03 1015.94 1015.91 1015.24 1014.79 1014.10 1012.67 1012.33 1012.23 1011.91 1011.91 1012.33 1012.04 1011.89 1011.10 1010.64 1010.04 1009.64 1009.47 1009.58 1009.36 1009.09 1008.84 1008.56 1008.17 1007.85 1007.69
1022.89 1022.37 1021.77 1021.22 1020.55 1020.24 1019.75 1019.50 1019.11 1018.93 1018.60 1018.23 1017.87 1016.98 1016.05 1015.00 1014.22 1013.69 1013.49 1013.14 1012.68 1012.57 1012.70 1012.48 1012.29 1011.63 1011.09 1010.57 1010.23 1009.89 1009.86 1009.80 1009.41 1009.15 1009.11 1008.77 1008.38 1008.21
1023.60 1023.10 1022.69 1022.45 1022.34 1022.26 1022.07 1021.87 1021.60 1021.14 1020.52 1019.62 1018.70 1018.19 1017.44 1016.10 1015.54 1014.88 1014.47 1014.24 1014.16 1014.18 1013.54 1012.78 1012.30 1011.90 1011.79 1010.95 1010.42 1010.28 1010.28 1010.22 1009.91 1009.65 1009.56 1009.48 1009.27 1008.96
1024.21 1024.39 1024.49 1024.32 1024.02 1023.81 1023.53 1023.32 1023.03 1022.66 1022.21 1021.42 1020.78 1019.99 1018.97 1017.85 1017.07 1016.32 1015.78 1015.59 1015.41 1014.74 1014.21 1013.82 1013.20 1012.46 1011.87 1011.39 1010.85 1010.87 1010.78 1010.59 1010.25 1010.11 1009.97 1010.11 1010.07 1009.90
1025.84 1026.17 1026.16 1025.77 1025.39 1025.04 1024.71 1024.51 1024.22 1023.85 1023.34 1022.60 1021.93 1021.35 1020.47 1019.62 1018.60 1017.83 1017.08 1016.30 1015.52 1015.12 1014.73 1014.38 1013.83 1013.39 1012.73 1012.46 1011.82 1011.59 1011.21 1010.75 1010.66 1010.66 1010.60 1010.67 1010.85 1010.81
1026.69 1026.83 1026.82 1026.59 1026.34 1026.18 1026.06 1025.82 1025.51 1024.94 1024.36 1023.90 1023.18 1022.52 1021.70 1020.72 1019.60 1018.73 1017.88 1017.51 1016.80 1016.03 1015.28 1014.52 1014.07 1013.61 1013.60 1013.63 1013.10 1012.54 1011.65 1011.22 1010.96 1011.07 1011.35 1011.49 1011.56 1011.60
1027.69 1027.49 1027.36 1027.35 1027.23 1027.06 1027.04 1026.67 1026.30 1026.06 1025.58 1024.82 1023.92 1023.24 1022.42 1021.50 1020.37 1019.51 1018.76 1018.07 1017.51 1016.73 1015.94 1015.09 1014.27 1013.66 1013.44 1013.25 1013.50 1013.21 1012.69 1011.93 1011.49 1011.25 1011.49 1011.81 1012.08 1012.11
1028.14 1027.88 1027.73 1027.71 1027.51 1027.15 1026.79 1026.58 1026.27 1026.15 1025.77 1025.23 1024.67 1024.04 1023.31 1022.46 1021.31 1020.31 1019.57 1019.05 1018.25 1017.53 1016.73 1015.56 1014.50 1013.84 1013.49 1013.52 1013.61 1013.58 1013.40 1013.11 1012.60 1012.14 1012.08 1011.82 1012.07 1012.11
1028.17 1027.94 1027.75 1027.62 1027.39 1027.14 1027.08 1027.14 1027.04 1026.83 1026.50 1026.11 1025.58 1024.81 1024.00 1023.18 1022.21 1021.33 1020.53 1019.79 1018.99 1018.14 1017.24 1016.19 1015.16 1014.27 1014.15 1014.08 1013.91 1013.81 1013.71 1013.43 1013.12 1012.99 1012.90 1012.77 1012.40 1011.98
Wind_Speed
9 11 9 8 8 10 14 8 8 14 11 5 5 9 9 9 11 11 13 14 19 19 19 18 18 18 18 20 22 24 24 25 26 27 27 27 28 28
7 8 8 8 11 11 12 14 11 9 10 6 7 5 9 9 10 12 13 13 19 19 19 18 17 17 17 17 20 22 24 25 25 26 27 28 28 28
10 10 12 11 9 9 8 10 10 11 10 6 2 6 7 10 7 9 9 10 8 17 17 18 18 18 18 19 19 19 21 23 25 26 27 29 30 30
11 11 12 8 12 11 9 11 8 4 6 11 7 5 8 8 9 12 9 8 9 14 19 20 19 18 17 18 18 18 19 21 22 24 26 29 31 31
10 12 9 2 9 7 10 9 9 9 11 10 13 3 7 4 5 4 8 8 7 10 14 15 17 17 17 17 17 17 18 18 19 20 21 23 28 31
14 14 14 12 7 5 6 11 13 10 12 13 13 8 5 4 4 7 7 5 5 5 8 9 10 13 13 14 16 19 19 19 20 20 21 22 24 28
16 14 14 19 23 18 6 8 6 8 12 12 11 7 7 5 9 4 5 4 3 2 5 4 3 4 5 10 11 15 15 15 17 19 22 24 26 29
16 16 15 18 16 23 24 25 20 3 6 7 6 8 1 4 2 1 2 3 4 4 3 1 2 5 2 4 7 6 3 11 15 18 20 22 23 25
19 17 15 14 13 11 17 19 20 24 17 11 12 10 9 9 9 4 2 2 2 3 4 3 1 2 3 4 9 8 6 5 7 10 14 15 16 19
21 19 18 19 19 14 12 14 14 15 16 10 12 11 8 8 6 0 6 4 2 3 4 2 3 2 2 3 8 8 8 7 5 8 11 13 15 17
18 20 19 18 27 27 15 16 15 14 14 22 25 20 21 21 16 4 9 3 1 5 7 3 2 3 2 2 2 5 7 9 10 10 10 10 13 16
15 17 32 24 30 30 16 14 15 15 12 13 13 15 15 14 18 14 4 5 3 1 6 6 3 3 3 1 1 2 2 7 7 10 13 14 13 6
12 13 13 28 31 30 27 16 16 11 12 10 10 8 8 8 8 7 6 5 6 3 6 4 3 3 2 3 1 2 3 3 3 4 11 15 13 4
12 10 13 26 27 30 21 28 25 14 10 10 9 10 10 10 9 7 7 5 4 2 6 5 3 4 4 3 3 2 2 3 3 3 4 6 12 17
11 17 23 25 25 19 31 30 20 13 11 11 10 9 8 8 8 7 8 8 3 3 5 5 5 6 4 4 4 2 3 2 2 2 3 4 4 3
11 11 13 16 18 16 15 16 13 12 11 10 8 8 9 9 9 8 7 9 4 5 7 5 6 7 4 2 3 3 2 3 2 2 2 4 4 4
8 9 10 10 11 11 11 11 11 11 11 10 11 10 9 9 9 8 7 6 3 5 6 8 8 3 2 5 2 3 2 2 1 1 2 3 5 5
10 11 10 10 10 10 10 10 10 11 10 9 9 9 9 9 9 8 8 6 6 5 6 5 7 5 3 3 12 5 3 2 2 3 2 3 5 5
8 7 7 8 9 9 9 9 10 9 9 8 8 8 8 8 10 8 8 7 7 7 6 5 5 5 4 3 4 12 3 2 1 3 4 4 2 5
6 6 6 7 7 8 8 8 8 9 9 8 8 8 8 8 8 8 8 7 7 6 6 5 5 4 2 2 3 3 17 2 2 3 3 5 6 13
4 4 2 4 5 5 3 4 2 5 6 6 8 8 8 8 8 8 8 10 8 7 8 8 7 7 3 1 3 3 4 14 5 2 4 4 2 1
2 2 3 2 3 3 3 3 4 5 7 7 7 7 7 7 8 9 8 8 8 7 7 8 8 5 2 2 1 1 2 3 8 16 15 7 2 3
3 3 3 3 3 2 2 2 3 4 4 5 6 6 6 7 8 7 7 7 7 8 8 8 6 3 3 3 2 1 1 1 2 2 4 11 9 9
Wind_Direction
243 238 202 208 208 217 263 229 271 239 251 230 227 207 209 201 206 196 208 196 213 213 214 210 209 210 207 208 212 214 216 217 215 215 216 215 215 218
245 211 204 198 197 206 236 215 218 236 237 212 216 203 204 208 202 196 210 199 203 207 209 207 207 208 208 210 212 215 216 216 219 216 217 217 216 216
233 210 207 188 200 216 210 204 228 215 241 258 259 224 206 214 205 201 205 203 212 204 208 204 207 208 208 212 213 216 217 217 218 221 220 217 217 217
231 210 209 196 202 200 196 200 206 219 249 255 238 233 224 220 213 205 210 204 212 200 199 208 205 208 210 214 213 214 217 218 219 221 222 221 220 221
44 49 37 359 215 216 213 210 211 204 228 240 262 238 217 227 203 194 201 216 218 232 210 214 219 203 206 214 215 221 221 223 222 221 224 227 224 221
50 54 50 39 35 5 331 233 230 223 218 228 226 225 208 193 215 207 208 204 200 211 221 215 202 214 212 216 217 223 225 223 228 228 227 226 224 221
44 39 44 46 51 54 59 10 346 245 227 226 228 213 200 190 202 180 202 168 185 202 211 206 163 197 220 220 233 231 231 230 233 234 232 229 225 227
41 34 30 26 41 54 60 58 38 18 51 357 254 225 94 2 30 128 123 150 192 19 319 204 217 197 150 85 58 47 10 251 241 239 237 236 235 231
38 33 31 23 12 42 56 57 50 59 55 77 64 29 26 3 328 343 51 81 80 51 357 285 347 141 102 87 57 44 16 335 304 269 255 248 243 239
40 33 32 26 17 31 41 52 46 47 45 41 70 87 54 14 348 160 338 341 60 56 348 251 357 330 51 84 49 44 35 29 354 298 271 257 243 240
35 33 37 28 27 31 27 41 41 44 37 53 54 51 48 35 47 16 22 339 52 63 4 349 345 306 26 44 29 37 37 34 33 13 345 316 270 252
32 31 34 33 34 34 34 28 32 31 28 30 36 31 32 29 25 55 3 6 25 66 16 341 333 7 319 61 29 4 332 13 5 358 359 357 320 252
29 22 26 29 34 35 36 34 30 8 28 31 41 26 25 33 21 25 25 34 35 9 357 342 323 321 282 310 7 28 354 339 346 356 11 20 8 26
31 27 27 32 31 34 34 31 29 19 25 30 29 21 11 14 8 4 20 14 61 13 326 338 298 341 326 299 277 12 8 341 325 347 345 7 32 46
33 30 32 29 28 27 30 27 23 21 21 22 19 8 8 356 353 8 14 8 21 28 351 355 339 311 271 274 310 334 323 340 345 348 2 19 18 3
19 22 23 28 31 24 22 21 19 16 13 14 6 356 355 3 13 9 6 360 5 358 342 352 340 358 330 357 321 317 328 311 343 8 32 35 31 32
21 28 29 27 27 23 20 19 16 13 10 3 4 358 357 2 4 3 10 2 13 336 337 339 335 285 36 14 356 358 332 320 339 355 34 55 27 23
31 29 25 21 22 19 16 14 12 9 4 359 1 358 355 355 354 358 1 360 352 343 345 336 337 337 347 341 60 8 337 337 1 42 46 65 48 27
49 38 30 19 15 16 13 10 3 1 353 358 359 354 353 345 352 352 356 354 348 347 339 333 346 355 360 332 320 18 336 356 28 40 38 49 61 43
41 34 20 17 20 21 14 11 1 357 360 354 354 350 350 343 349 353 356 352 340 331 334 340 344 352 357 278 303 305 355 7 76 88 84 78 74 70
11 16 7 9 13 13 4 355 343 348 342 340 352 346 344 345 345 347 348 345 337 346 337 330 322 320 248 215 7 336 333 21 60 97 119 89 59 59
325 348 342 340 331 343 345 357 351 353 356 354 346 337 335 333 337 339 344 339 336 331 316 315 318 333 329 325 309 297 334 331 32 63 59 66 163 159
313 306 301 297 295 307 333 357 353 336 339 340 338 334 329 335 331 330 328 330 329 329 329 326 320 333 344 352 343 345 344 0 351 13 36 34 42 47